Hourly Data Report for August 31, 2020

OTTAWA INTL A
ONTARIO
Current Station Operator: NAVCAN

45°19'00.000" N
75°40'00.000" W
114.90 m
6106001
71628
YOW

Download Data

Hourly Data (August 2020)
Hourly Data Report for August 31, 2020
TIME Temp Definition
°C
Dew Point Definition
°C
Rel Hum Definition
%
Wind Dir Definition
10's deg

Wind Spd Definition
km/h
Visibility Definition
km
Stn Press Definition
kPa
Hmdx Definition


Wind Chill Definition


Weather Definition


00:00 13.4 12.1 91 30 11 24.1 100.17     LegendNANA
01:00 12.4 10.9 91 32 14 24.1 100.20     Mostly Cloudy
02:00 10.7 9.2 90 28 6 24.1 100.26     LegendNANA
03:00 9.7 9.3 98 28 5 24.1 100.32     LegendNANA
04:00 10.5 10.3 99 28 7 24.1 100.38     Clear
05:00 10.1 9.9 99 27 6 24.1 100.45     LegendNANA
06:00 10.3 10.2 99 32 4 24.1 100.51     LegendNANA
07:00 12.3 12.0 98 36 1 24.1 100.53     Clear
08:00 15.2 11.5 78 3 8 24.1 100.52     LegendNANA
09:00 16.9 9.5 62 7 8 24.1 100.53     LegendNANA
10:00 18.4 10.2 58 1 5 24.1 100.52     Clear
11:00 19.1 8.8 51 20 4 24.1 100.50     LegendNANA
12:00 20.5 9.2 48 17 13 24.1 100.48     LegendNANA
13:00 20.4 8.6 46 11 7 24.1 100.46     Mainly Clear
14:00 20.9 9.0 46 16 9 24.1 100.38     LegendNANA
15:00 21.5 9.3 45 15 12 24.1 100.35     LegendNANA
16:00 20.8 10.2 51 15 11 24.1 100.34     Mainly Clear
17:00 20.5 10.5 52 11 13 24.1 100.30     LegendNANA
18:00 18.2 11.5 64 11 12 24.1 100.25     LegendNANA
19:00 16.7 10.8 68 7 7 24.1 100.30     Clear
20:00 14.0 10.9 82 8 12 24.1 100.33     LegendNANA
21:00 14.8 11.0 78 9 14 24.1 100.27     LegendNANA
22:00 14.5 10.9 79 11 14 24.1 100.26     Clear
23:00 15.3 11.3 77 8 12 24.1 100.29     LegendNANA

Notes on Data Quality.

Legend

  • E = Estimated
  • M = Missing
  • NA = Not Available*
  • [empty] = Indicates an unobserved value
Date modified: